BEIDOU-3 M24 (44543 NORAD) Tracking and Keplerian Element Data

This shows tracking and keplerian element data for the satellite.

Feedback or suggestion? Click here.




ElementValue
Catalog44543
NameBEIDOU-3 M24
Epoch Orbit49
Epoch Day292.7055753
Epoch Year2019
RAAN265.184
Inclination55.0014
Eccentricity0.0007324
Argument of Perigee289.4614
Mean Anonmoly240.8297
Mean Motion1.8623194
Decay Rate3.1E-07
L11 44543U 19061B 19292.70557530 .00000031 00000-0 10000-3 0 9990
L22 44543 55.0014 265.1840 0007324 289.4614 240.8297 1.86231940 492

Live tracking and technical data element details for BEIDOU-3 M24 (NORAD 44543). BEIDOU-3 M24 can be tracked NOW for your location showing map with azimuth and elevation plus other details from your city location.

Track the satellite on the map from your city or location and see movement details for azimuth, elevation, latitude, longitude, range, height, and movement on the map or in text.







IsCatalogInMostPopularTable: catalog: 44543, numindb: 17
Update: records affected: 1



GetName: 44543 BEIDOU-3 M24

Hit Count: updated at: Thu, 14 Nov 2019 06:15:04 GMT